#timestamp,LO_Frequency,Hit,StdDev 
1666216815.5,286047002.4,N
1666216835.3,286047002.1,N
1666216855.2,286046999.8,N
1666216875.9,286047002.0,N
1666216895.7,286047002.5,N
1666216915.6,286046999.8,N
1666216935.4,286046999.7,N
1666216955.3,286047002.1,N
1666216975.1,286047003.8,N
1666216976.0,286047003.8,N
1666216995.8,286047002.5,N
1666217015.7,286047003.6,N
1666217035.5,286047003.1,N
1666217055.3,286047005.1,Y
1666217075.2,286046999.8,P
1666217095.0,286047000.0,N
1666217095.9,286047000.0,N
1666217115.8,286047000.4,N
1666217135.6,286046998.7,N
1666217155.4,286046998.1,N
1666217175.3,286046999.0,N
1666217195.1,286046998.7,N
1666217215.8,286046998.3,N
1666217235.7,286046998.3,N
1666217255.5,286046998.5,N
1666217275.4,286047000.4,N
1666217295.2,286047001.1,N
1666217315.0,286046996.6,N
1666217315.9,286046996.6,N
1666217335.8,286046998.6,N
1666217355.6,286047000.6,N
1666217375.5,286046998.7,N
1666217395.3,286046998.9,N
1666217415.1,286046998.3,N
1666217435.9,286046999.3,N
1666217455.7,286046999.6,N
1666217475.5,286046998.8,N
1666217495.4,286046996.8,N
1666217515.2,286046996.7,N
1666217535.1,286046998.8,N
1666217536.0,286046998.8,N
1666217555.8,286046998.7,N
1666217575.6,286047000.9,N
1666217595.5,286046998.1,N
1666217615.3,286047002.7,N
1666217635.1,286047000.1,N
1666217655.9,286047000.6,N
1666217675.7,286047000.1,N
1666217695.6,286047000.6,N
1666217715.4,286046998.8,N
1666217735.3,286047000.5,N
1666217755.1,286047000.5,N
1666217756.0,286047011.9,Y
1666217775.8,286046999.9,P
1666217795.7,286047002.7,P
1666217815.5,286047002.4,N
1666217835.3,286047002.1,N
1666217855.2,286047001.8,N
1666217875.0,286047004.1,Y
1666217875.9,286047004.1,P
1666217895.8,286047002.4,N
1666217915.6,286046998.7,N
1666217935.4,286047000.0,N
1666217955.3,286047000.3,N
1666217975.1,286046999.6,N
1666217995.8,286046996.8,N
1666218015.7,286046997.4,N
1666218035.5,286046997.4,N
1666218055.4,286046999.0,N
1666218075.2,286046998.3,N
1666218095.0,286046998.2,N
1666218095.9,286046998.2,N
1666218115.8,286047000.7,N
1666218135.6,286046999.9,N
1666218155.4,286047001.0,N
1666218175.3,286046997.1,N
1666218195.1,286046999.6,N
1666218215.9,286046998.5,N
1666218235.7,286046998.3,N
1666218255.5,286046999.9,N
1666218275.4,286046998.9,N
1666218295.2,286046997.1,N
1666218315.0,286046998.3,N
1666218315.9,286046998.3,N
1666218335.8,286047001.2,N
1666218355.6,286047002.2,N
1666218375.5,286047001.9,N
1666218395.3,286047001.9,N
1666218415.1,286047003.5,N
1666218435.9,286047004.1,N
1666218455.7,286047000.4,N
1666218475.5,286047002.4,N
1666218495.4,286047001.6,N
1666218515.2,286047001.9,N
1666218535.1,286047001.8,N
1666218536.0,286047001.8,N
1666218555.8,286047002.0,N
1666218575.7,286046999.0,N
1666218595.5,286047001.0,N
1666218615.3,286046999.9,N
1666218635.2,286047000.3,N
1666218655.9,286046998.7,N
1666218675.7,286047001.2,N
1666218695.6,286047001.0,N
1666218715.4,286046998.8,N
1666218735.3,286046999.6,N
1666218755.1,286046998.3,N
1666218756.0,286046998.3,N
1666218775.8,286046998.7,N
1666218795.7,286047000.4,N
1666218815.5,286047002.5,N
1666218835.3,286046998.6,N
1666218855.2,286047002.7,N
1666218875.0,286046998.1,N
1666218875.9,286046998.1,N
1666218895.8,286046998.7,N
1666218915.6,286046999.2,N
1666218935.4,286047000.9,N
1666218955.3,286047000.4,N
1666218975.1,286046998.5,N
1666218995.9,286046998.1,N
1666219015.7,286047000.7,N
1666219035.5,286047002.0,N
1666219055.4,286047004.2,N
1666219075.2,286047002.0,N
1666219095.0,286046998.4,N
1666219095.9,286046998.4,N
1666219115.8,286047001.0,N
1666219135.6,286047002.5,N
1666219155.5,286047004.0,N
1666219175.3,286047003.6,N
1666219195.1,286047005.2,N
1666219215.9,286047006.0,N
1666219235.7,286047003.2,N
1666219255.5,286047004.8,N
1666219275.4,286047004.9,N
1666219295.2,286047006.3,N
1666219315.1,286047006.8,N
1666219316.0,286047006.8,N
1666219335.8,286047006.4,N
1666219355.6,286047007.1,N
1666219375.5,286047007.6,N
1666219395.3,286047006.7,N
1666219415.1,286047009.0,N
1666219435.9,286047008.9,N
1666219455.7,286047009.2,N
1666219475.6,286047008.8,N
1666219495.4,286047006.2,N
1666219515.2,286047006.7,N
1666219535.1,286047006.7,N
1666219536.0,286047006.7,N
1666219555.8,286047007.5,N
1666219575.7,286047004.6,N
1666219595.5,286047005.9,N
1666219615.3,286047005.0,N
1666219635.2,286047005.5,N
1666219655.0,286047005.9,N
1666219655.9,286047005.9,Y
1666219675.8,286046999.0,P
1666219695.6,286046998.8,N
1666219715.4,286046996.9,N
1666219735.3,286046996.5,N
1666219755.1,286046994.9,N
1666219775.8,286046995.1,N
1666219795.7,286046997.9,N
1666219815.5,286046995.6,N
1666219835.3,286046995.7,N
1666219855.2,286046995.4,N
1666219875.0,286046995.3,N
1666219875.9,286046995.3,N
1666219895.8,286046995.9,N
1666219915.6,286046993.6,N
1666219935.4,286046995.7,N
1666219955.3,286046996.0,N
1666219975.1,286046996.4,N
1666219995.9,286046995.9,N
1666220015.7,286046994.2,N
1666220035.5,286046994.4,N
1666220055.4,286046990.1,Y
1666220075.2,286046994.0,P
1666220095.0,286046996.0,P
1666220096.0,286046996.0,P
1666220115.8,286046996.0,Y
1666220135.6,286047001.1,P
1666220155.5,286047000.9,N
1666220175.3,286047000.5,N
1666220195.1,286047000.9,N
1666220215.9,286046999.9,N
1666220235.7,286047000.3,N
1666220255.6,286047000.6,N
1666220275.4,286047000.8,N
1666220295.2,286046998.4,N
1666220315.1,286046997.5,N
1666220316.0,286046997.5,N
1666220335.8,286046997.1,N
1666220355.6,286046999.1,N
1666220375.5,286046999.4,N
1666220395.3,286046996.9,N
